7 * 24
多渠道服务支持
IRIDIUM 174 是美国 Iridium 公司运营的 Iridium 卫星通信系统中的一颗低轨卫星,属于第二代 Iridium NEXT 系列。该卫星运行在约 780 公里的极地轨道上,提供全球范围的语音和数据通信服务。IRIDIUM 174 与其他 65 颗同类卫星共同构建了覆盖全球的移动通信网络,广泛应用于航空、航海、应急通信和军事等领域。其先进设计支持高速数据传输和抗干扰能力,提升了卫星通信的可靠性和效率。
美国
(US)
| 数据来源 | 国际轨道数据 |
| 星历时间: | 2025-12-15T02:09:15+0800 1天前 查看轨道信息 |
| 半长轴: | 7032.018km |
| 偏心率: | 0.000219 |
| 轨道倾角: | 86.609° |
| 近地点辐角 | 87.793° |
| 升交点赤经 | 70.801° |
| 平近点角 | 272.354° |
| 近地点: | 652.342km |
| 远地点: | 655.424km |
| 周期: | 97.809分钟 |
| 每日圈数: | 14.722545 |